time, Switch, Flow(0), Analog(2)
yyyy/mm/dd HH:MM:SS.fff, True=FILTERED|False=TOTAL, L/min, V
2023/07/04 14:00:03.161, True, 3.980, 0.142443
2023/07/04 14:00:03.657, True, 3.706, 0.141451
2023/07/04 14:00:04.161, True, 2.321, 0.139773
2023/07/04 14:00:04.665, True, 1.326, 0.141680
2023/07/04 14:00:05.161, True, 1.011, 0.140536
2023/07/04 14:00:05.665, True, 0.995, 0.144198
2023/07/04 14:00:06.161, True, 1.011, 0.140230
2023/07/04 14:00:06.665, True, 0.663, 0.141375
2023/07/04 14:00:07.169, True, 0.996, 0.141070
2023/07/04 14:00:07.665, True, 1.009, 0.141527
2023/07/04 14:00:08.169, True, 0.663, 0.141909
2023/07/04 14:00:08.673, True, 0.995, 0.142214
2023/07/04 14:00:09.177, True, 0.997, 0.139467
2023/07/04 14:00:09.673, True, 0.673, 0.141451
2023/07/04 14:00:10.177, True, 0.995, 0.140307
2023/07/04 14:00:10.681, True, 0.663, 0.142977
2023/07/04 14:00:11.177, True, 1.011, 0.142672
2023/07/04 14:00:11.681, True, 0.663, 0.141833
2023/07/04 14:00:12.177, True, 1.011, 0.141756
2023/07/04 14:00:12.681, True, 0.995, 0.141680
2023/07/04 14:00:13.185, True, 0.663, 0.141833
2023/07/04 14:00:13.689, True, 0.995, 0.140078
2023/07/04 14:00:14.185, True, 1.011, 0.141985
2023/07/04 14:00:14.689, True, 0.663, 0.143053
2023/07/04 14:00:15.193, True, 0.995, 0.139773
2023/07/04 14:00:15.689, True, 0.674, 0.140154
2023/07/04 14:00:16.193, True, 0.997, 0.139696
2023/07/04 14:00:16.697, True, 0.993, 0.139162
2023/07/04 14:00:17.193, True, 1.011, 0.141604
2023/07/04 14:00:17.697, True, 0.664, 0.142977
2023/07/04 14:00:18.201, True, 0.993, 0.140688
2023/07/04 14:00:18.697, True, 1.011, 0.142061
2023/07/04 14:00:19.201, True, 0.663, 0.141680
2023/07/04 14:00:19.705, True, 0.995, 0.140154
2023/07/04 14:00:20.201, True, 0.674, 0.141146
2023/07/04 14:00:20.705, True, 0.995, 0.139467
2023/07/04 14:00:21.209, True, 0.995, 0.140307
2023/07/04 14:00:21.705, True, 0.674, 0.140536
2023/07/04 14:00:22.209, True, 0.995, 0.139620
2023/07/04 14:00:22.713, True, 0.995, 0.139696
2023/07/04 14:00:23.209, True, 0.674, 0.141756
2023/07/04 14:00:23.713, True, 0.995, 0.143130
2023/07/04 14:00:24.209, True, 0.674, 0.139391
2023/07/04 14:00:24.713, True, 0.995, 0.139773
2023/07/04 14:00:25.217, True, 0.996, 0.140612
2023/07/04 14:00:25.713, True, 0.673, 0.139010
2023/07/04 14:00:26.217, True, 0.995, 0.140841
2023/07/04 14:00:26.721, True, 0.663, 0.142672
2023/07/04 14:00:27.217, True, 1.011, 0.137713
2023/07/04 14:00:27.721, True, 0.663, 0.140078
2023/07/04 14:00:28.225, True, 0.995, 0.143130
2023/07/04 14:00:28.729, True, 0.663, 0.139010
2023/07/04 14:00:29.225, True, 1.012, 0.141222
2023/07/04 14:00:29.729, True, 0.994, 0.142596
2023/07/04 14:00:30.233, True, 0.664, 0.140307
2023/07/04 14:00:30.729, True, 1.010, 0.139086
2023/07/04 14:00:31.233, True, 0.995, 0.141451
2023/07/04 14:00:31.737, True, 0.663, 0.140383
2023/07/04 14:00:32.233, True, 1.011, 0.140307
2023/07/04 14:00:32.737, True, 0.663, 0.141680
2023/07/04 14:00:33.241, True, 0.995, 0.138857
2023/07/04 14:00:33.737, True, 1.011, 0.141909
2023/07/04 14:00:34.241, True, 0.663, 0.140688
2023/07/04 14:00:34.745, True, 0.663, 0.141909
2023/07/04 14:00:35.241, True, 1.011, 0.142138
2023/07/04 14:00:35.745, True, 0.995, 0.140078
2023/07/04 14:00:36.249, True, 0.663, 0.142977
2023/07/04 14:00:36.745, True, 1.011, 0.140917
2023/07/04 14:00:37.248, True, 0.663, 0.141604
2023/07/04 14:00:37.745, True, 1.012, 0.139086
2023/07/04 14:00:38.249, True, 0.993, 0.143359
2023/07/04 14:00:38.753, True, 0.663, 0.140841
2023/07/04 14:00:39.249, True, 1.011, 0.140993
2023/07/04 14:00:39.753, True, 0.664, 0.141070
2023/07/04 14:00:40.257, True, 0.993, 0.140764
2023/07/04 14:00:40.753, True, 0.675, 0.140536
2023/07/04 14:00:41.256, True, 0.994, 0.140841
2023/07/04 14:00:41.761, True, 0.995, 0.140993
2023/07/04 14:00:42.257, True, 0.674, 0.140459
2023/07/04 14:00:42.761, True, 0.994, 0.142443
2023/07/04 14:00:43.265, True, 0.663, 0.140230
2023/07/04 14:00:43.761, True, 1.011, 0.142061
2023/07/04 14:00:44.265, True, 0.995, 0.141909
2023/07/04 14:00:44.768, True, 0.663, 0.141527
2023/07/04 14:00:45.265, True, 1.011, 0.142290
2023/07/04 14:00:45.769, True, 0.664, 0.141909
2023/07/04 14:00:46.272, True, 0.993, 0.140764
2023/07/04 14:00:46.769, True, 0.674, 0.141222
2023/07/04 14:00:47.273, True, 0.996, 0.141756
2023/07/04 14:00:47.777, True, 0.993, 0.138933
2023/07/04 14:00:48.273, True, 0.674, 0.140154
2023/07/04 14:00:48.777, True, 0.997, 0.141451
2023/07/04 14:00:49.281, True, 0.662, 0.140917
2023/07/04 14:00:49.777, True, 1.011, 0.143206
2023/07/04 14:00:50.280, True, 0.997, 0.139239
2023/07/04 14:00:50.785, True, 0.663, 0.141604
2023/07/04 14:00:51.281, True, 1.011, 0.140307
2023/07/04 14:00:51.785, True, 0.662, 0.142443
2023/07/04 14:00:52.288, True, 0.997, 0.141833
2023/07/04 14:00:52.785, True, 0.673, 0.140536
2023/07/04 14:00:53.289, True, 0.996, 0.140002
2023/07/04 14:00:53.793, True, 0.993, 0.141451
2023/07/04 14:00:54.289, True, 0.674, 0.141375
2023/07/04 14:00:54.793, True, 0.995, 0.140459
2023/07/04 14:00:55.297, True, 0.994, 0.140078
2023/07/04 14:00:55.801, True, 0.995, 0.140536
2023/07/04 14:00:56.297, True, 0.673, 0.140841
2023/07/04 14:00:56.801, True, 0.995, 0.141756
2023/07/04 14:00:57.305, True, 0.664, 0.141527
2023/07/04 14:00:57.801, True, 1.010, 0.141527
2023/07/04 14:00:58.305, True, 0.663, 0.140764
2023/07/04 14:00:58.809, True, 0.995, 0.143053
2023/07/04 14:00:59.305, True, 1.011, 0.143130
2023/07/04 14:00:59.809, True, 0.663, 0.138552
2023/07/04 14:01:00.313, True, 0.995, 0.141299
2023/07/04 14:01:00.809, True, 1.012, 0.140078
2023/07/04 14:01:01.313, True, 0.663, 0.140993
2023/07/04 14:01:01.817, True, 0.994, 0.142214
2023/07/04 14:01:02.321, True, 0.996, 0.140688
2023/07/04 14:01:02.817, True, 1.010, 0.141451
2023/07/04 14:01:03.321, True, 0.663, 0.141451
2023/07/04 14:01:03.817, True, 1.011, 0.139544
2023/07/04 14:01:04.321, True, 0.663, 0.137407
2023/07/04 14:01:04.825, True, 0.995, 0.140841
2023/07/04 14:01:05.321, True, 1.011, 0.141756
2023/07/04 14:01:05.825, True, 0.663, 0.141451
2023/07/04 14:01:06.329, True, 0.995, 0.139773
2023/07/04 14:01:06.825, True, 0.675, 0.139162
2023/07/04 14:01:07.329, True, 0.993, 0.141833
2023/07/04 14:01:07.833, True, 0.995, 0.142138
2023/07/04 14:01:08.329, True, 0.674, 0.144274
2023/07/04 14:01:08.833, True, 0.995, 0.142672
2023/07/04 14:01:09.337, True, 0.663, 0.141756
2023/07/04 14:01:09.833, True, 1.011, 0.143740
2023/07/04 14:01:10.337, True, 0.663, 0.141909
2023/07/04 14:01:10.841, True, 0.995, 0.141985
2023/07/04 14:01:11.337, True, 0.674, 0.145342
2023/07/04 14:01:11.841, True, 0.994, 0.143511
2023/07/04 14:01:12.337, True, 0.674, 0.143053
2023/07/04 14:01:12.841, True, 0.995, 0.142977
2023/07/04 14:01:13.345, True, 0.664, 0.141909
2023/07/04 14:01:13.840, True, 1.009, 0.142596
2023/07/04 14:01:14.345, True, 0.995, 0.142596
2023/07/04 14:01:14.849, True, 0.663, 0.145876
2023/07/04 14:01:15.353, True, 0.995, 0.144656
2023/07/04 14:01:15.849, True, 1.011, 0.143511
2023/07/04 14:01:16.353, True, 0.663, 0.142977
2023/07/04 14:01:16.857, True, 0.995, 0.144274
2023/07/04 14:01:17.353, True, 1.011, 0.141909
2023/07/04 14:01:17.857, True, 0.663, 0.146181
2023/07/04 14:01:18.361, True, 0.995, 0.145190
2023/07/04 14:01:18.857, True, 1.011, 0.145418
2023/07/04 14:01:19.361, True, 0.663, 0.145190
2023/07/04 14:01:19.865, True, 0.995, 0.143435
2023/07/04 14:01:20.360, True, 0.674, 0.143130
2023/07/04 14:01:20.865, True, 0.994, 0.145495
2023/07/04 14:01:21.369, True, 0.663, 0.143435
2023/07/04 14:01:21.865, True, 1.011, 0.144121
2023/07/04 14:01:22.369, True, 0.995, 0.146105
2023/07/04 14:01:22.873, True, 0.663, 0.144732
2023/07/04 14:01:23.369, True, 1.011, 0.147097
2023/07/04 14:01:23.873, True, 0.664, 0.146868
2023/07/04 14:01:24.369, True, 1.009, 0.145113
2023/07/04 14:01:24.873, True, 0.995, 0.145495
2023/07/04 14:01:25.377, True, 0.663, 0.145266
2023/07/04 14:01:25.881, True, 0.995, 0.143511
2023/07/04 14:01:26.377, True, 1.011, 0.145418
2023/07/04 14:01:26.881, True, 0.663, 0.145953
2023/07/04 14:01:27.385, True, 0.996, 0.148547
2023/07/04 14:01:27.881, True, 0.673, 0.144808
2023/07/04 14:01:28.385, True, 0.995, 0.146487
2023/07/04 14:01:28.889, True, 0.995, 0.145418
2023/07/04 14:01:29.385, True, 0.675, 0.144961
2023/07/04 14:01:29.889, True, 0.663, 0.145953
2023/07/04 14:01:30.393, True, 0.995, 0.145418
2023/07/04 14:01:30.889, True, 1.010, 0.144884
2023/07/04 14:01:31.393, True, 0.663, 0.145647
2023/07/04 14:01:31.897, True, 0.995, 0.148165
2023/07/04 14:01:32.393, True, 1.011, 0.147326
2023/07/04 14:01:32.897, True, 0.663, 0.145495
2023/07/04 14:01:33.393, True, 1.011, 0.146792
2023/07/04 14:01:33.897, True, 0.663, 0.146563
2023/07/04 14:01:34.400, True, 0.995, 0.146487
2023/07/04 14:01:34.897, True, 0.674, 0.147326
2023/07/04 14:01:35.401, True, 0.995, 0.148623
2023/07/04 14:01:35.905, True, 0.995, 0.146410
2023/07/04 14:01:36.401, True, 0.674, 0.147021
2023/07/04 14:01:36.905, True, 0.995, 0.147478
2023/07/04 14:01:37.409, True, 0.663, 0.146944
2023/07/04 14:01:37.913, True, 0.995, 0.146639
2023/07/04 14:01:38.409, True, 0.674, 0.146258
2023/07/04 14:01:38.913, True, 0.995, 0.144198
2023/07/04 14:01:39.417, True, 0.995, 0.145876
2023/07/04 14:01:39.913, True, 0.674, 0.145800
2023/07/04 14:01:40.417, True, 0.995, 0.145495
2023/07/04 14:01:40.921, True, 0.995, 0.145571
2023/07/04 14:01:41.417, True, 0.674, 0.146105
2023/07/04 14:01:41.921, True, 0.995, 0.146715
2023/07/04 14:01:42.425, True, 0.664, 0.148852
2023/07/04 14:01:42.921, True, 1.010, 0.146105
2023/07/04 14:01:43.425, True, 0.995, 0.147860
2023/07/04 14:01:43.921, True, 0.674, 0.147860
2023/07/04 14:01:44.425, True, 0.995, 0.147250
2023/07/04 14:01:44.929, True, 0.995, 0.146944
2023/07/04 14:01:45.425, True, 0.675, 0.147250
2023/07/04 14:01:45.929, True, 0.994, 0.147707
2023/07/04 14:01:46.433, True, 0.995, 0.146334
2023/07/04 14:01:46.929, True, 0.674, 0.147250
2023/07/04 14:01:47.432, True, 0.995, 0.147784
2023/07/04 14:01:47.937, True, 0.663, 0.148852
2023/07/04 14:01:48.433, True, 1.011, 0.147478
2023/07/04 14:01:48.937, True, 0.995, 0.146639
2023/07/04 14:01:49.441, True, 0.663, 0.146334
2023/07/04 14:01:49.937, True, 1.011, 0.146563
2023/07/04 14:01:50.441, True, 0.995, 0.145724
2023/07/04 14:01:50.945, True, 0.664, 0.148547
2023/07/04 14:01:51.441, True, 1.010, 0.148089
2023/07/04 14:01:51.945, True, 0.663, 0.146792
2023/07/04 14:01:52.449, True, 0.995, 0.147173
2023/07/04 14:01:52.945, True, 1.011, 0.149462
2023/07/04 14:01:53.449, True, 0.663, 0.147021
2023/07/04 14:01:53.952, True, 0.995, 0.147173
2023/07/04 14:01:54.449, True, 0.674, 0.147326
2023/07/04 14:01:54.953, True, 0.995, 0.146944
2023/07/04 14:01:55.457, True, 0.994, 0.148165
2023/07/04 14:01:55.953, True, 0.674, 0.146639
2023/07/04 14:01:56.457, True, 0.995, 0.148547
2023/07/04 14:01:56.961, True, 0.995, 0.147021
2023/07/04 14:01:57.457, True, 0.674, 0.147021
2023/07/04 14:01:57.961, True, 0.995, 0.147936
2023/07/04 14:01:58.465, True, 0.663, 0.145724
2023/07/04 14:01:58.961, True, 1.011, 0.147478
2023/07/04 14:01:59.465, True, 0.663, 0.149004
2023/07/04 14:01:59.969, True, 0.995, 0.150378
2023/07/04 14:02:00.465, True, 1.011, 0.147936
2023/07/04 14:02:00.969, True, 0.663, 0.148013
2023/07/04 14:02:01.473, True, 0.995, 0.148547
2023/07/04 14:02:01.969, True, 0.674, 0.148775
2023/07/04 14:02:02.473, True, 0.994, 0.147936
2023/07/04 14:02:02.977, True, 0.664, 0.149844
2023/07/04 14:02:03.473, True, 1.011, 0.149767
2023/07/04 14:02:03.977, True, 0.995, 0.147555
2023/07/04 14:02:04.473, True, 0.674, 0.149233
2023/07/04 14:02:04.977, True, 0.996, 0.147555
2023/07/04 14:02:05.481, True, 0.662, 0.149233
2023/07/04 14:02:05.977, True, 1.011, 0.147250
2023/07/04 14:02:06.481, True, 0.996, 0.147936
2023/07/04 14:02:06.985, True, 0.995, 0.148852
2023/07/04 14:02:07.481, True, 0.674, 0.148547
2023/07/04 14:02:07.985, True, 0.993, 0.149844
2023/07/04 14:02:08.489, True, 0.995, 0.147402
2023/07/04 14:02:08.985, True, 0.674, 0.147021
2023/07/04 14:02:09.489, True, 0.995, 0.148318
2023/07/04 14:02:09.993, True, 0.663, 0.146487
2023/07/04 14:02:10.496, True, 0.995, 0.145724
2023/07/04 14:02:10.993, True, 0.674, 0.146563
2023/07/04 14:02:11.497, True, 0.997, 0.149157
2023/07/04 14:02:11.993, True, 0.673, 0.147707
2023/07/04 14:02:12.496, True, 0.995, 0.149081
2023/07/04 14:02:13.000, True, 0.995, 0.147326
2023/07/04 14:02:13.496, True, 1.011, 0.149386
2023/07/04 14:02:14.000, True, 0.663, 0.146487
2023/07/04 14:02:14.504, True, 0.995, 0.147097
2023/07/04 14:02:15.001, True, 0.674, 0.147021
2023/07/04 14:02:15.505, True, 0.995, 0.148547
2023/07/04 14:02:16.008, True, 0.995, 0.146715
2023/07/04 14:02:16.505, True, 0.674, 0.147784
2023/07/04 14:02:17.009, True, 0.995, 0.147784
2023/07/04 14:02:17.513, True, 0.663, 0.149920
2023/07/04 14:02:18.009, True, 1.011, 0.146639
2023/07/04 14:02:18.513, True, 0.664, 0.144884
2023/07/04 14:02:19.009, True, 1.011, 0.147402
2023/07/04 14:02:19.513, True, 0.663, 0.147631
2023/07/04 14:02:20.017, True, 0.996, 0.147555
2023/07/04 14:02:20.513, True, 0.674, 0.145342
2023/07/04 14:02:21.017, True, 0.994, 0.146639
2023/07/04 14:02:21.520, True, 0.996, 0.149081
2023/07/04 14:02:22.017, True, 0.674, 0.148394
2023/07/04 14:02:22.521, True, 0.994, 0.146410
2023/07/04 14:02:23.025, True, 0.996, 0.146639
2023/07/04 14:02:23.521, True, 0.674, 0.146029
2023/07/04 14:02:24.025, True, 0.995, 0.149996
2023/07/04 14:02:24.529, True, 0.662, 0.148852
2023/07/04 14:02:25.025, True, 1.011, 0.146258
2023/07/04 14:02:25.529, True, 0.664, 0.147478
2023/07/04 14:02:26.033, True, 0.994, 0.147402
2023/07/04 14:02:26.537, True, 0.663, 0.146258
2023/07/04 14:02:27.033, True, 1.011, 0.147860
2023/07/04 14:02:27.537, True, 0.996, 0.147402
2023/07/04 14:02:28.041, True, 0.663, 0.147631
2023/07/04 14:02:28.537, True, 1.012, 0.148013
2023/07/04 14:02:29.041, True, 0.994, 0.146944
2023/07/04 14:02:29.545, True, 0.663, 0.149386
2023/07/04 14:02:30.049, True, 0.995, 0.148318
2023/07/04 14:02:30.545, True, 0.674, 0.147936
2023/07/04 14:02:31.049, True, 0.995, 0.147784
2023/07/04 14:02:31.553, True, 0.997, 0.148089
2023/07/04 14:02:32.049, True, 0.672, 0.149004
2023/07/04 14:02:32.553, True, 0.995, 0.147478
2023/07/04 14:02:33.057, True, 0.995, 0.147097
2023/07/04 14:02:33.553, True, 0.674, 0.148852
2023/07/04 14:02:34.057, True, 0.995, 0.146715
2023/07/04 14:02:34.561, True, 0.664, 0.147478
2023/07/04 14:02:35.057, True, 1.009, 0.146792
2023/07/04 14:02:35.561, True, 0.995, 0.148547
2023/07/04 14:02:36.065, True, 0.663, 0.145724
2023/07/04 14:02:36.561, True, 1.011, 0.148165
2023/07/04 14:02:37.065, True, 0.663, 0.148775
2023/07/04 14:02:37.569, True, 0.995, 0.150301
2023/07/04 14:02:38.065, True, 1.011, 0.149462
2023/07/04 14:02:38.569, True, 0.663, 0.145953
2023/07/04 14:02:39.073, True, 0.995, 0.148013
2023/07/04 14:02:39.569, True, 1.011, 0.148852
2023/07/04 14:02:40.073, True, 0.663, 0.147555
2023/07/04 14:02:40.577, True, 0.995, 0.149538
2023/07/04 14:02:41.073, True, 0.674, 0.148775
2023/07/04 14:02:41.577, True, 0.995, 0.149386
2023/07/04 14:02:42.081, True, 0.663, 0.148470
2023/07/04 14:02:42.577, True, 1.010, 0.147097
2023/07/04 14:02:43.081, True, 0.663, 0.148775
2023/07/04 14:02:43.577, True, 1.011, 0.147936
2023/07/04 14:02:44.081, True, 0.995, 0.148013
2023/07/04 14:02:44.585, True, 0.663, 0.150072
2023/07/04 14:02:45.081, True, 1.012, 0.148394
2023/07/04 14:02:45.585, True, 0.663, 0.147326
2023/07/04 14:02:46.089, True, 0.995, 0.148318
2023/07/04 14:02:46.585, True, 0.673, 0.145953
2023/07/04 14:02:47.089, True, 0.995, 0.147860
2023/07/04 14:02:47.593, True, 0.995, 0.148165
2023/07/04 14:02:48.089, True, 0.675, 0.147402
2023/07/04 14:02:48.593, True, 0.993, 0.146334
2023/07/04 14:02:49.097, True, 0.663, 0.146410
2023/07/04 14:02:49.593, True, 1.012, 0.145800
2023/07/04 14:02:50.097, True, 0.663, 0.148394
2023/07/04 14:02:50.601, True, 0.994, 0.147250
2023/07/04 14:02:51.097, True, 1.012, 0.147021
2023/07/04 14:02:51.601, True, 0.662, 0.149767
2023/07/04 14:02:52.105, True, 0.995, 0.149004
2023/07/04 14:02:52.601, True, 1.011, 0.147478
2023/07/04 14:02:53.105, True, 0.663, 0.148013
2023/07/04 14:02:53.609, True, 0.995, 0.146868
2023/07/04 14:02:54.113, True, 0.664, 0.147707
2023/07/04 14:02:54.609, True, 1.010, 0.148775
2023/07/04 14:02:55.113, True, 0.663, 0.147707
2023/07/04 14:02:55.609, True, 1.011, 0.148623
2023/07/04 14:02:56.113, True, 0.996, 0.149538
2023/07/04 14:02:56.617, True, 0.662, 0.147478
2023/07/04 14:02:57.113, True, 1.011, 0.146410
2023/07/04 14:02:57.617, True, 0.663, 0.147784
2023/07/04 14:02:58.121, True, 0.995, 0.148394
2023/07/04 14:02:58.617, True, 0.674, 0.145724
2023/07/04 14:02:59.121, True, 0.995, 0.148470
2023/07/04 14:02:59.625, True, 0.995, 0.148394
2023/07/04 14:03:00.121, True, 0.674, 0.146258
2023/07/04 14:03:00.625, True, 0.995, 0.148241
2023/07/04 14:03:01.129, True, 0.663, 0.149615
2023/07/04 14:03:01.625, True, 1.011, 0.147860
2023/07/04 14:03:02.129, True, 0.663, 0.148089
2023/07/04 14:03:02.633, True, 0.995, 0.145876
2023/07/04 14:03:03.129, True, 0.674, 0.149920
2023/07/04 14:03:03.633, True, 0.995, 0.148394
2023/07/04 14:03:04.137, True, 0.663, 0.146715
2023/07/04 14:03:04.633, True, 1.011, 0.149004
2023/07/04 14:03:05.137, True, 0.995, 0.145953
2023/07/04 14:03:05.641, True, 0.995, 0.149767
2023/07/04 14:03:06.137, True, 0.674, 0.149462
2023/07/04 14:03:06.641, True, 0.995, 0.145113
2023/07/04 14:03:07.145, True, 0.663, 0.147021
2023/07/04 14:03:07.641, True, 1.011, 0.149157
2023/07/04 14:03:08.145, True, 0.664, 0.147097
2023/07/04 14:03:08.649, True, 0.995, 0.147631
2023/07/04 14:03:09.145, True, 1.010, 0.148318
2023/07/04 14:03:09.649, True, 0.663, 0.148241
2023/07/04 14:03:10.153, True, 0.995, 0.146639
2023/07/04 14:03:10.657, True, 0.995, 0.146487
2023/07/04 14:03:11.153, True, 0.674, 0.146868
2023/07/04 14:03:11.657, True, 0.995, 0.147555
2023/07/04 14:03:12.161, True, 0.663, 0.148547
2023/07/04 14:03:12.657, True, 1.011, 0.149157
2023/07/04 14:03:13.161, True, 0.995, 0.149157
2023/07/04 14:03:13.665, True, 0.663, 0.148165
2023/07/04 14:03:14.169, True, 0.995, 0.148623
2023/07/04 14:03:14.665, True, 0.674, 0.145800
2023/07/04 14:03:15.169, True, 0.995, 0.147326
2023/07/04 14:03:15.673, True, 0.995, 0.149615
2023/07/04 14:03:16.169, True, 0.674, 0.146334
2023/07/04 14:03:16.673, True, 0.995, 0.146715
2023/07/04 14:03:17.169, True, 1.011, 0.148699
2023/07/04 14:03:17.673, True, 0.663, 0.147402
2023/07/04 14:03:18.177, True, 0.995, 0.145190
2023/07/04 14:03:18.673, True, 0.674, 0.147555
2023/07/04 14:03:19.177, True, 0.997, 0.145647
2023/07/04 14:03:19.681, True, 0.993, 0.147402
2023/07/04 14:03:20.177, True, 0.674, 0.147478
2023/07/04 14:03:20.681, True, 0.995, 0.148089
2023/07/04 14:03:21.185, True, 0.663, 0.145190
2023/07/04 14:03:21.681, True, 1.012, 0.147402
2023/07/04 14:03:22.185, True, 0.663, 0.144427
2023/07/04 14:03:22.689, True, 0.995, 0.148165
2023/07/04 14:03:23.185, True, 0.674, 0.148928
2023/07/04 14:03:23.689, True, 0.997, 0.147173
2023/07/04 14:03:24.193, True, 0.993, 0.147402
2023/07/04 14:03:24.689, True, 0.674, 0.146944
2023/07/04 14:03:25.193, True, 0.995, 0.148623
2023/07/04 14:03:25.697, True, 0.663, 0.147326
2023/07/04 14:03:26.193, True, 1.011, 0.146944
2023/07/04 14:03:26.697, True, 0.663, 0.146029
2023/07/04 14:03:27.201, True, 0.995, 0.146792
2023/07/04 14:03:27.697, True, 0.674, 0.147555
2023/07/04 14:03:28.201, True, 0.995, 0.147173
2023/07/04 14:03:28.705, True, 0.995, 0.145418
2023/07/04 14:03:29.201, True, 0.674, 0.146563
2023/07/04 14:03:29.705, True, 0.995, 0.146410
2023/07/04 14:03:30.201, True, 0.674, 0.150530
2023/07/04 14:03:30.705, True, 0.995, 0.145800
2023/07/04 14:03:31.209, True, 0.995, 0.147250
2023/07/04 14:03:31.705, True, 0.674, 0.147707
2023/07/04 14:03:32.209, True, 0.995, 0.146715
2023/07/04 14:03:32.713, True, 0.996, 0.146715
2023/07/04 14:03:33.209, True, 0.674, 0.147784
2023/07/04 14:03:33.713, True, 0.994, 0.147097
2023/07/04 14:03:34.217, True, 0.994, 0.146334
2023/07/04 14:03:34.713, True, 0.674, 0.146410
2023/07/04 14:03:35.217, True, 0.995, 0.147021
2023/07/04 14:03:35.720, True, 0.665, 0.146792
2023/07/04 14:03:36.225, True, 0.993, 0.147021
2023/07/04 14:03:36.721, True, 1.011, 0.146258
2023/07/04 14:03:37.225, True, 0.663, 0.145953
2023/07/04 14:03:37.721, True, 1.011, 0.147402
2023/07/04 14:03:38.225, True, 0.663, 0.147021
2023/07/04 14:03:38.729, True, 0.995, 0.147478
2023/07/04 14:03:39.225, True, 0.674, 0.147860
2023/07/04 14:03:39.729, True, 0.995, 0.147631
2023/07/04 14:03:40.233, True, 0.995, 0.148394
2023/07/04 14:03:40.737, True, 0.663, 0.146639
2023/07/04 14:03:41.233, True, 1.011, 0.146792
2023/07/04 14:03:41.737, True, 0.995, 0.148623
2023/07/04 14:03:42.241, True, 0.663, 0.147631
2023/07/04 14:03:42.737, True, 1.011, 0.146563
2023/07/04 14:03:43.241, True, 0.663, 0.145647
2023/07/04 14:03:43.745, True, 0.995, 0.148241
2023/07/04 14:03:44.241, True, 0.674, 0.148852
2023/07/04 14:03:44.745, True, 0.995, 0.145953
2023/07/04 14:03:45.241, True, 1.011, 0.147021
2023/07/04 14:03:45.745, True, 0.663, 0.146563
2023/07/04 14:03:46.249, True, 0.995, 0.146563
2023/07/04 14:03:46.745, True, 0.674, 0.149691
2023/07/04 14:03:47.249, True, 0.995, 0.145724
2023/07/04 14:03:47.753, True, 0.663, 0.148852
2023/07/04 14:03:48.249, True, 1.011, 0.148165
2023/07/04 14:03:48.753, True, 0.995, 0.147784
2023/07/04 14:03:49.257, True, 0.663, 0.146715
2023/07/04 14:03:49.753, True, 1.011, 0.145647
2023/07/04 14:03:50.257, True, 0.663, 0.146181
2023/07/04 14:03:50.761, True, 0.995, 0.146334
2023/07/04 14:03:51.265, True, 0.996, 0.146715
2023/07/04 14:03:51.761, True, 0.674, 0.145953
2023/07/04 14:03:52.265, True, 0.993, 0.147021
2023/07/04 14:03:52.761, True, 1.011, 0.147173
2023/07/04 14:03:53.265, True, 0.664, 0.147936
2023/07/04 14:03:53.769, True, 0.993, 0.147555
2023/07/04 14:03:54.273, True, 0.664, 0.146410
2023/07/04 14:03:54.769, True, 1.011, 0.145724
2023/07/04 14:03:55.273, True, 0.995, 0.146868
2023/07/04 14:03:55.777, True, 0.662, 0.147936
2023/07/04 14:03:56.273, True, 1.013, 0.146715
2023/07/04 14:03:56.777, True, 0.663, 0.148165
2023/07/04 14:03:57.281, True, 0.993, 0.147784
2023/07/04 14:03:57.777, True, 1.012, 0.147021
2023/07/04 14:03:58.281, True, 0.663, 0.147097
2023/07/04 14:03:58.785, True, 0.993, 0.146334
2023/07/04 14:03:59.281, True, 0.675, 0.143587
2023/07/04 14:03:59.785, True, 0.993, 0.148394
2023/07/04 14:04:00.289, True, 0.663, 0.146563
2023/07/04 14:04:00.785, True, 1.011, 0.146944
2023/07/04 14:04:01.289, True, 0.663, 0.144045
2023/07/04 14:04:01.792, True, 0.994, 0.147021
2023/07/04 14:04:02.289, True, 0.674, 0.147784
2023/07/04 14:04:02.793, True, 0.995, 0.146105
2023/07/04 14:04:03.297, True, 0.994, 0.145190
2023/07/04 14:04:03.793, True, 0.674, 0.144121
2023/07/04 14:04:04.297, True, 0.995, 0.147021
2023/07/04 14:04:04.801, True, 0.995, 0.147631
2023/07/04 14:04:05.297, True, 0.674, 0.148928
2023/07/04 14:04:05.801, True, 0.995, 0.143664
2023/07/04 14:04:06.297, True, 1.011, 0.147555
2023/07/04 14:04:06.801, True, 0.664, 0.149996
2023/07/04 14:04:07.305, True, 0.994, 0.144884
2023/07/04 14:04:07.809, True, 0.995, 0.147555
2023/07/04 14:04:08.305, True, 0.675, 0.148394
2023/07/04 14:04:08.809, True, 0.994, 0.146715
2023/07/04 14:04:09.313, True, 0.663, 0.146410
2023/07/04 14:04:09.809, True, 1.011, 0.147250
2023/07/04 14:04:10.313, True, 0.663, 0.143664
2023/07/04 14:04:10.809, True, 1.011, 0.145876
2023/07/04 14:04:11.313, True, 0.995, 0.146029
2023/07/04 14:04:11.817, True, 0.663, 0.146792
2023/07/04 14:04:12.313, True, 1.011, 0.147173